{"data":{"norad_id":51785,"epoch":"2026-05-25T00:21:35.953344Z","epoch_age_seconds":76963,"freshness":"FRESH","line1":"1 51785U 22017T   26145.01499946 -.00000682  00000+0 -24758-4 0  9995","line2":"2 51785  53.2134 356.4543 0001410  98.6889 261.4263 15.08831304233948","mean_motion":15.08831304,"eccentricity":0.000141,"inclination_deg":53.2134,"raan_deg":356.4543,"arg_perigee_deg":98.6889,"mean_anomaly_deg":261.4263,"bstar":-2.4758e-5,"rev_number":23394,"period_min":95.438104722674,"perigee_km":538.79454440221,"apogee_km":540.74539416754,"semimajor_km":6917.9069692849,"source":"CELESTRAK","updated_at":"2026-05-25T13:38:16.953416Z"}}